Mohamed Tahrat

Recruteur en chef - USM Alger
25 Nov 2027
Jeudi
Processus

Personnalité

Adaptabilité (16) Ambition (14) Controverse (16) Loyauté (7) Pression (3) Professionnalisme (1) Sportivité (13) Tempérament (8)

Profil

Style d'entraînement Démocratique
Diplôme Continental B
Détermination 9
Gestion des joueurs 4
Motivation 9
Discipline 6
Satisfaction professionnelle
100%
Fatigue
0%
Rôle Recruteur en chef
Salaire 62.3K p/s
Contrat 14.03.2029

Performance

Comportement Bon
Efficacité de l'entraînement
48%
Développement des joueurs
45%
Prévention des blessures
20%
Mise en place tactique
55%

Événements récents

A participé à une réunion de recrutement maintenant
A participé à une réunion de recrutement maintenant
A voté contre une cible de transfert maintenant
A participé à une réunion de recrutement 7j
A voté contre une cible de transfert 7j
A participé à une réunion de recrutement 7j
A participé à une réunion de recrutement 7j
A observé un match 7j

Suivi en cours

140
Joueur Club Statut Capacité Confiance Observé Dernière observation Dernier vote
Lorent Tolaj Plymouth Argyle Actif 119 / 115 40% 2 05.07.2027 -
Elijah Adebayo Luton Town Actif 120 / 111 40% 1 05.07.2027 -
Oto John ES Mostaganem Actif 107 / 105 55% 1 14.06.2027 -
Othmane Maamma Watford Actif 128 / 123 40% 1 14.06.2027 -
Ryoya Morishita Blackburn Rovers Actif 142 / 114 40% 1 14.06.2027 -
Tyreece Campbell Charlton Athletic Actif 134 / 124 40% 1 31.05.2027 -
Ronan Hale Gillingham Actif 120 / 118 40% 1 30.05.2027 -
Joe Gelhardt Hull City Actif 146 / 135 40% 1 30.05.2027 -
Rodrigo Mora AS Roma Actif 133 / 155 40% 1 30.05.2027 -
Kasey McAteer Ipswich Town Actif 114 / 137 40% 2 29.05.2027 -
Harry Clarke Preston Actif 131 / 131 40% 1 29.05.2027 -
Dom Ballard Leyton Orient Actif 114 / 114 40% 1 26.05.2027 -
Themba Ngcobo SuperSport United Actif 136 / 110 40% 4 25.05.2027 -
Aune Heggebø West Bromwich Albion Actif 121 / 131 40% 1 25.05.2027 -
Ilyas Ansah Hull City Actif 116 / 142 40% 1 25.05.2027 -
Leandro Antunes Al-Riyadh Actif 106 / 105 40% 5 23.05.2027 -
Niall Ennis Blackpool Actif 118 / 100 40% 1 23.05.2027 -
Marcus Browne AFC Wimbledon Actif 103 / 108 40% 1 21.05.2027 -
Isaiah Jones Luton Town Actif 127 / 116 40% 1 21.05.2027 -
David Turnbull Cardiff City Actif 120 / 112 40% 1 21.05.2027 -
Youssef En-Nesyri Al-Ittihad Actif 133 / 143 40% 8 18.05.2027 -
Dion Lopy Al-Ittihad Actif 133 / 133 40% 3 17.05.2027 -
Dany Mota Monza Actif 144 / 116 40% 1 17.05.2027 Plus d'infos
Romano Schmid Frosinone Actif 137 / 149 40% 1 17.05.2027 -
Mohau Nkota Al-Ettifaq Actif 122 / 110 40% 5 16.05.2027 -
Musa Barrow Al-Khaleej Actif 137 / 140 40% 9 14.05.2027 -
Santiago Pierotti Lecce Actif 138 / 126 40% 1 13.05.2027 -
Silvio Merkaj Vicenza Actif 118 / 123 40% 2 12.05.2027 -
Evidence Makgopa Orlando Pirates Actif 123 / 121 40% 4 11.05.2027 -
Wilfried Kanga Al-Fateh Actif 127 / 121 40% 5 10.05.2027 Observer
Simone Mazzocchi Cosenza Actif 126 / 101 40% 2 10.05.2027 Plus d'infos
Steven Bergwijn Al-Ittihad Actif 135 / 137 40% 6 09.05.2027 -
Moussa Koné Al-Ra'ed Actif 112 / 121 40% 3 09.05.2027 -
David Okereke Cremonese Actif 140 / 125 40% 1 07.05.2027 -
Mattéo Tramoni Pisa Actif 121 / 129 40% 2 06.05.2027 -
Konan N'Dri Lecce Actif 128 / 119 40% 2 02.05.2027 -
Camillo Tavernelli Arezzo Actif 106 / 113 40% 1 02.05.2027 -
Haitham Asiri Al-Qadisiyah Actif 122 / 97 40% 6 29.04.2027 -
Martin Sekulić Ural Actif 107 / 123 40% 4 27.04.2027 -
Yacine Adli Al-Shabab Actif 129 / 152 40% 2 27.04.2027 -
Nabil Alioui Al-Nassr Actif 116 / 116 40% 2 27.04.2027 -
Oswin Appollis Orlando Pirates Actif 113 / 123 40% 2 25.04.2027 -
Parfait Guiagon Al-Taawoun Actif 128 / 130 40% 3 23.04.2027 -
Ahmed Al-Nakhli Al-Hazem Actif 94 / 123 40% 2 22.04.2027 -
Derrick Fordjour Medeama Actif 84 / 84 40% 2 22.04.2027 -
Brayan León Mamelodi Sundowns Actif 118 / 129 40% 5 21.04.2027 -
Lewis Morgan SuperSport United Actif 111 / 117 40% 4 15.04.2027 -
Etiosa Ighodaro Kaizer Chiefs Actif 105 / 125 40% 4 15.04.2027 -
David Romero Parma Actif 110 / 132 40% 2 14.04.2027 -
Giuseppe Di Serio Spezia Actif 124 / 115 40% 1 07.04.2027 -
Joseph Wakaso Wa All Stars Actif 117 / 104 40% 1 06.04.2027 -
Eduard Spertsyan Al-Ahli Actif 131 / 150 40% 2 05.04.2027 -
Khalid Al-Ghannam Al-Ettifaq Actif 118 / 115 40% 1 03.04.2027 -
Marco Tumminello Benevento Actif 97 / 119 40% 1 31.03.2027 -
Chinedu Geoffrey Krylya Sovetov Actif 130 / 112 40% 3 24.03.2027 -
Rayan Bournemouth Actif 150 / 140 40% 1 24.03.2027 -
Zaydou Youssouf Al-Fateh Actif 141 / 130 40% 3 23.03.2027 -
Marcelo Allende Mamelodi Sundowns Actif 117 / 138 40% 1 23.03.2027 -
Crysencio Summerville Al-Hilal Actif 160 / 143 40% 4 22.03.2027 -
Matheus Gonçalves Al-Ahli Actif 118 / 140 40% 6 20.03.2027 -
François Kamano Sochi Actif 121 / 107 40% 2 12.03.2027 -
Radhi Al-Otaibi Al-Ettifaq Actif 100 / 117 40% 1 07.03.2027 -
Mduduzi Shabalala Kaizer Chiefs Actif 126 / 128 40% 1 03.03.2027 -
Mihai Lixandru Al-Fateh Actif 125 / 111 40% 2 27.02.2027 -
Jacques Siwe Rubin Actif 119 / 111 40% 2 23.02.2027 -
Vladimir Khubulov Dinamo Makhachkala Actif 102 / 117 40% 1 21.02.2027 -
Vyacheslav Grulev Nizhniy Novgorod Actif 127 / 105 40% 1 21.02.2027 -
Hlompho Lorch Ajax Cape Town Actif 86 / 110 40% 1 21.02.2027 -
Kazunari Kita Real Sociedad Actif 105 / 95 40% 1 21.02.2027 -
Valentin Atangana Al-Ahli Actif 135 / 141 40% 1 20.02.2027 -
Edarlyn Reyes Arsenal Tula Actif 102 / 97 40% 1 19.02.2027 -
Mohammad Alsalkhadi Damac Actif 97 / 102 40% 1 16.02.2027 -
Nicolás Andereggen Ethnikos Achnas Actif 95 / 97 40% 1 15.02.2027 -
Mikhail Ignatov Sochi Actif 116 / 116 40% 1 12.02.2027 -
Josh Smith Accrington Stanley Actif 74 / 78 40% 1 11.02.2027 -
Tiago Freitas Benfica Actif 103 / 116 40% 1 11.02.2027 -
Ali Majrashi Al-Ahli Actif 140 / 140 40% 2 10.02.2027 -
Mandla Mahlangu Ajax Cape Town Actif 97 / 93 40% 1 10.02.2027 -
Everton Bala Levski Actif 121 / 133 40% 1 06.02.2027 -
Billal Messaoudi JS Kabylie Actif 120 / 120 40% 2 05.02.2027 -
Leandro Godoy CSKA Sofia Actif 125 / 120 40% 1 04.02.2027 -
Mahamadou Doumbia Al-Ittihad Actif 136 / 143 40% 3 02.01.2027 -
Yegor Koshkin Pobeda Actif 83 / 84 40% 2 30.12.2026 -
Abdalla Zaal HJK Actif 91 / 64 40% 1 28.12.2026 -
Mayed Al-Kaabi Sharjah Actif 76 / 87 40% 2 27.12.2026 -
Fabricio Díaz San Lorenzo Actif 82 / 84 40% 4 26.12.2026 -
Williams Mothiba Black Aces Actif 98 / 102 40% 6 26.12.2026 Refuser
Tshepang Moremi Orlando Pirates Actif 119 / 111 40% 2 25.12.2026 -
Turki Al-Ammar Al-Qadisiyah Actif 106 / 115 40% 2 25.12.2026 -
Christopher Bonsu Baah Al-Qadisiyah Actif 130 / 138 40% 2 23.12.2026 -
Gift Hlatshwayo Free State Stars Actif 102 / 113 40% 7 19.12.2026 -
Gonçalo Silva Porto Actif 100 / 83 40% 2 18.12.2026 -
Yury Maleev Ural Actif 82 / 80 40% 1 18.12.2026 -
Dhari Al-Anazi Al-Shabab Actif 100 / 112 40% 1 18.12.2026 -
Hamed Al-Ghamdi Al-Ittihad Actif 120 / 98 40% 1 13.12.2026 -
Mohamed Tarek ENPPI Actif 82 / 85 40% 1 12.12.2026 -
Bonheur Mugisha Al-Hazem Actif 108 / 106 40% 1 07.12.2026 -
Ignacio Coscio Huracán Actif 93 / 100 40% 1 03.12.2026 -
Maxim Shichanin Zenit Actif 91 / 103 40% 1 03.12.2026 -
Youssef Beshir ENPPI Actif 78 / 70 40% 1 30.11.2026 -
Milson Al Jazira Actif 132 / 108 40% 1 30.11.2026 -
Yasser Al-Sultan Al-Mojzel Actif 74 / 77 40% 4 26.11.2026 -
Ahmed Menshawi Ittihad Actif 86 / 93 40% 3 24.11.2026 -
Ahmed Waheb Zlate Moravce Actif 62 / 83 40% 1 24.11.2026 -
Prince Guèye Al Wahda Actif 74 / 110 40% 4 23.11.2026 -
Hamza Khaled Petrojet Actif 70 / 82 40% 1 23.11.2026 -
Greisha New Edubiase United Actif 85 / 77 40% 1 22.11.2026 -
Mateo Raschia Unión de Santa Fe Actif 92 / 112 40% 1 20.11.2026 -
Guilherme Pires Sporting CP Actif 75 / 105 40% 2 18.11.2026 -
Serginho Al Wasl Actif 114 / 116 40% 1 18.11.2026 -
Tommaso Orsini Sambenedettese Actif 106 / 96 40% 1 16.11.2026 -
Thiago Perruisset Boca Juniors Actif 77 / 92 40% 1 15.11.2026 -
Axell Amaral Al Ain Actif 85 / 90 40% 3 13.11.2026 -
Aiman Yahya Al-Nassr Actif 115 / 119 40% 2 10.11.2026 -
Daniel Kyerewaa Reading Actif 128 / 114 40% 1 10.11.2026 -
Lautaro Vera Platense Actif 92 / 99 40% 1 05.11.2026 -
Marcos Ferreira Miramar Misiones Actif 89 / 101 40% 3 04.11.2026 -
Ramiro Buratti River Plate Actif 102 / 85 40% 1 30.10.2026 -
David Cordova Atletico Venezuela Actif 84 / 110 40% 2 29.10.2026 -
Richard Medvedev Khazar Actif 99 / 111 40% 2 29.10.2026 -
Luis Montilla San Telmo Actif 76 / 110 40% 1 28.10.2026 -
Jadsom Al Wahda Actif 144 / 126 40% 1 23.10.2026 -
Federico Bonilla Nacional Actif 100 / 92 40% 1 18.10.2026 -
Jerónimo Gutiérrez Independiente Rivadavia Actif 89 / 105 40% 1 16.10.2026 -
Valentín Díaz Temperley Actif 88 / 95 40% 1 13.10.2026 -
Adam Gnezda Čerin Al Wahda Actif 116 / 107 40% 1 12.10.2026 -
Francisco Trincão Zenit Actif 158 / 148 40% 1 10.10.2026 -
Omar Abdelaziz Zamalek Actif 71 / 94 40% 1 08.10.2026 -
Emiliano Zacca Deportivo Riestra Actif 90 / 110 40% 1 07.10.2026 -
Jakub Badžgoň MSK Zilina Actif 94 / 94 40% 1 26.09.2026 -
Valentín Catalán Argentinos Juniors Actif 96 / 103 40% 1 23.09.2026 -
Andy Ezekiel Chikhura Actif 83 / 83 40% 1 23.09.2026 -
Rafael Hornos Liverpool Montevideo Actif 96 / 103 40% 1 22.09.2026 -
Ignacio Abarza Huracán Actif 86 / 76 40% 2 21.09.2026 -
Adrián Csenterics Estudiantes de Merida Actif 105 / 107 40% 2 19.09.2026 -
Santiago Garro Almirante Brown Actif 71 / 82 40% 1 13.09.2026 -
Alfonso Álvarez Ferro Carril Oeste Actif 94 / 111 40% 1 09.09.2026 -
Gerardo Díaz San Martín SJ Actif 103 / 89 40% 1 08.09.2026 -
Ramón Mierez Al Nasr Actif 137 / 105 40% 1 17.08.2026 -
Abdelkader Boussaid ASO Chlef Actif 98 / 82 51% 1 10.08.2026 -